This demonstration page uses our WeatherBlox Daily Observations layout. Learn more.

Left ArrowRight Arrow

Hourly Observations for April 12, 2021

Temp ( °F °C ) Dew Point ( °F °C ) Humidity (%) Winds ( mph kmh ) Pressure ( in mb ) Visibility ( mi km ) Precip ( " mm )
12:53 am 00:53 Clear 68 20 23 -5 18 18 N 13 20 29.82 1010 10 16 0.00 0.00
1:53 am 01:53 Clear 66 18.9 23 -5 19 19 N 12 19 29.83 1010 10 16 0.00 0.00
2:53 am 02:53 Clear 65 18.3 22 -5.6 19 19 N 12 19 29.82 1010 10 16 0.00 0.00
3:53 am 03:53 Clear 63 17.2 20 -6.7 19 19 N 9 15 29.83 1010 10 16 0.00 0.00
4:53 am 04:53 Clear 62 16.7 18 -7.8 18 18 N 13 20 29.84 1010 10 16 0.00 0.00
5:53 am 05:53 Clear 62 16.7 17 -8.3 17 17 N 15 24 29.84 1011 10 16 0.00 0.00
6:53 am 06:53 Sunny 61 16.1 17 -8.3 18 18 N 15 24 29.86 1011 10 16 0.00 0.00
7:53 am 07:53 Sunny 62 16.7 19 -7.2 19 19 N 14 22 29.87 1012 10 16 0.00 0.00
8:53 am 08:53 Sunny 64 17.8 20 -6.7 18 18 N 16 26 29.88 1012 10 16 0.00 0.00
9:53 am 09:53 Sunny 67 19.4 22 -5.6 18 18 NNE 22 35 29.87 1011 10 16 0.00 0.00
10:53 am 10:53 Sunny 69 20.6 22 -5.6 17 17 N 16 26 29.86 1011 10 16 0.00 0.00
11:53 am 11:53 Sunny 73 22.8 23 -5 15 15 N 16 26 29.84 1011 10 16 0.00 0.00
12:53 pm 12:53 Sunny 76 24.4 25 -3.9 15 15 N 14 22 29.81 1010 10 16 0.00 0.00
1:53 pm 13:53 Sunny 78 25.6 22 -5.6 12 12 NNE 15 24 29.78 1009 10 16 0.00 0.00
2:53 pm 14:53 Sunny 80 26.7 22 -5.6 11 11 VRB 7 11 29.76 1008 10 16 0.00 0.00
3:53 pm 15:53 Sunny 82 27.8 20 -6.7 10 10 ENE 7 11 29.72 1007 10 16 0.00 0.00
4:53 pm 16:53 Sunny 82 27.8 22 -5.6 11 11 ENE 10 17 29.70 1006 10 16 0.00 0.00
5:53 pm 17:53 Sunny 82 27.8 18 -7.8 9 9 E 6 9 29.69 1005 10 16 0.00 0.00
6:53 pm 18:53 Sunny 80 26.7 22 -5.6 11 11 Calm 29.68 1005 10 16 0.00 0.00
7:53 pm 19:53 Clear 70 21.1 27 -2.8 20 20 WSW 3 6 29.68 1005 10 16 0.00 0.00
8:53 pm 20:53 Clear 64 17.8 31 -0.6 29 29 W 6 9 29.69 1006 10 16 0.00 0.00
9:53 pm 21:53 Clear 65 18.3 32 0 29 29 N 6 9 29.71 1006 10 16 0.00 0.00
10:53 pm 22:53 Clear 58 14.4 36 2.2 44 44 N 3 6 29.71 1006 10 16 0.00 0.00
11:53 pm 23:53 Clear 53 11.7 37 2.8 55 55 WNW 5 7 29.73 1007 10 16 0.00 0.00

Powered by AerisWeather